Погода в Армавире

Погода в Армавире : погода сейчас, прогноз погоды и архив. Всё, что Вы хотите узнать о погоде в Армавире!

Поиск расширенной информации на нашем сайте:

Другие новости

Новости СМИ2

Главная страница сайта

Новости сайта

03.07.2017

Напоминаем, что на нашем специализированном сайте Метеоцентр.Азия вы можете получить высокодетализированные автоматические прогнозы погоды по пунктам России, СНГ и мира в авиационном формате (включающие направление и скорость ветра, видимость, явления погоды, количество и форму облачности, нижнюю и верхнюю границу облачности).


Погода в Армавире - сегодня

Время (UTC), дата Ветер
(°,м/с) 
Видим.   Явления Облачность Т
(°С)
Тd
(°С)
f(%) Тe
(°С)
Pmin
(гПа)
dP
(гПа)
Po
(мм)
O2
(г/м3)
Тmin Tmax R s Состояние
почвы
21 17.08.18 070 (В) 10 км    3/0 средняя 
[Ac trans]
+25.1 +8.8 36 +25  1009.7  -0.3  744  273           
00 18.08.18 080 (В) 10 км    3/0 средняя 
[Ac trans]
+24.4 +2.1 23 +24  1009.8  744  275           
03 18.08.18 110 (В) 10 км    8/8 600 м 
[Sc]
+23.1 +9.8 43 +24  1010.2  0.3  744  275  +23.1        сухая 
06 18.08.18 070 (В) 10 км    3/0 средняя, верхняя 
[Ac trans|Ci fib]
+30.1 +5.7 21 +30  1010.1  0.4  744  269  +22.3         
09 18.08.18 040 (СВ) 5-11{11}  10 км    3/1 600 м верхняя 
[Cu hum|Ci fib]
+33 +2.3 14 +33  1009.5  -0.5  744  267           
12 18.08.18 070 (В) 4{13}  10 км    4/1 600 м верхняя 
[Cu hum|Ci fib]
+34.3 +0.8 12 +34  1008.7  -0.7  743  266           
15 18.08.18 100 (В) 3{10}  10 км    5/1 600 м средняя, верхняя 
[Cu hum|Ac trans|Ci fib]
+31.3 -0.8 13 +31  1009.2  0.3  744  269    +34.4       
18 18.08.18 120 (ЮВ) 10 км    1/0 средняя 
[Ac trans]
+25.6 +8.2 33 +26  1011.5  745  273           
21 18.08.18 080 (В) 10 км    ясно 
+17.7 +11.4 67 +22  1012.4  0.4  745  280           
00 19.08.18 070 (В) 10 км    ясно 
+22.4 +11.2 49 +25  1012.7  0.6  746  276           
03 19.08.18 080 (В) 10 км    ясно 
+20 +9.9 52 +21  1014.2  1.3  747  279  +17.7        сухая 
06 19.08.18 080 (В) 10 км    ясно 
+24.9 +6.2 30 +25  1014.7  0.8  747  275           
09 19.08.18 070 (В) 5{11}  10 км    ясно 
+27.2 +3.1 21 +27  1014.4  -0.2  747  273           
12 19.08.18 090 (В) 4-10{11}  10 км    ясно 
+28.9 +3.1 19 +29  1013.6  -0.6  747  272           
15 19.08.18 090 (В) 3{10}  10 км    ясно 
+27.6 -0.3 16 +28  1014.2  0.5  747  273    +29.2       
18 19.08.18 060 (СВ) 10 км    ясно 
+22.5 -0.6 21 +23  1015.3  0.7  748  278           
21 19.08.18 080 (В) 10 км    ясно 
+19.2 +0.7 29 +20  1015.6  0.1  748  281           
00 20.08.18 070 (В) 10 км    ясно 
+18.5 -0.1 28 +19  1015.6  -0.1  748  282           
03 20.08.18 150 (ЮВ) 10 км    ясно 
+13.1 +3.1 51 +14  1016.4  0.5  748  287  +12.9        сухая 
06 20.08.18 100 (В) 5-11{11}  10 км    ясно 
+23.5 +7 35 +24  1015.6  -0.2  748  276           
09 20.08.18 080 (В) 5-11{13}  10 км    ясно 
+27.8 +3.3 21 +28  1014.5  -0.8  747  273           
12 20.08.18 100 (В) 4{12}  10 км    ясно 
+29.6 +4.9 21 +30  1013.4  -0.9  747  271           
15 20.08.18 080 (В) 4{10}  10 км    ясно 
+28.3 +2.1 18 +28  1013  -0.5  746  272    +29.9       
18 20.08.18 070 (В) 10 км    ясно 
+22.7 -1 21 +23  1013.9  0.6  747  278           
21 20.08.18 100 (В) 10 км    ясно 
+17.9 +1.4 33 +19  1013.6  -0.6  746  282           
Время (UTC), дата Ветер
(°,м/с) 
Видим.   Явления Облачность Т
(°С)
Тd
(°С)
f(%) Тe
(°С)
Pmin
(гПа)
dP
(гПа)
Po
(мм)
O2
(г/м3)
Тmin Tmax R s Состояние
почвы

Для получения пояснительной информации подведите курсор к названию столбца.

ПОГОДА в Армавире - архив

Всё, что Вы хотите узнать о погоде в Армавире - удобно и подробно!

Выберите нужную дату (начиная с 1 января 2015* года) и нажмите кнопку "Найти".
Будут отображены архивные сводки погоды по пункту Армавир, начиная с указанной даты.


Отображать данные в формате CSV (для использования в таблицах Excel)


Внимание! Наш архив погоды предназначен исключительно для личного некоммерческого использования в познавательных целях. Если Вам необходимы официальные справки о состоянии погоды (для производственных, юридических, коммерческих и т.п. целей), обращайтесь в органы Росгидромета.

*Примечание: данная дата относится к архиву по метеостанциям СССР (Россия, СНГ, Балтия).
Архив по метеостанциям Зарубежной Европы и Азии (кроме Китая) хранится 10 дней, по другим регионам земного шара (Китай, Африка, Америка, Австралия, Океания) - 1 день.

Армавир - район местоположения метеостанции


Название, широта, долгота, высота метеостанции:
Армавир 45°ш. 41.1°д. 159 м над ур. моря [Российская Федерация]

Дополнительная информация

В oтличие oт бoльшинства пoгoдных сайтoв мы публикуем пoдрoбную метеoинфoрмацию в детальнoм прoфессиoнальнoм фoрмате.

Характеристики температуры и влажнoсти вoздуха измеряются на высoте 2 м в тени вдали oт зданий и деревьев.
Скoрoсть ветра измеряется на высoте 10 м (на урoвне рoста челoвека скoрoсть ветра ниже в 1.5-2 раза). Если метеoстанция нахoдится в гoрoде или в лесу, тo скoрoсть ветра занижена на 2-4 м/с пo сравнению с oткрытым местoм. Скoрoсть ветра над акватoриями крупных рек и oзёр, а также на вершинах хoлмoв на 2-5 м/с выше, чем в oбычных услoвиях.
Атмoсфернoе давление в разных тoчках местнoсти мoжет значительнo oтличаться oт давления на метеoстанции, в зависимoсти oт услoвий рельефа (при пoдъёме на 10 м давление пoнижается примернo на 1 мм рт.ст.).